Location: Seattle
(47.6064°N, 122.3308°W)
Time: 05:24:59
(UTC-08:00)

S-56A Canister/Altair - Pass Details

Date: 03 December 2020
Orbit: 633 x 2499 km, 38.9° (Epoch: 23 January)

Event Time Altitude Azimuth Distance (km) Brightness Sun altitude
Rises 16:48:22 0° 213° (SSW) 6,137 13.4 -5.1°
Reaches altitude 10° 16:53:12 10° 205° (SSW) 5,025 12.5 -5.8°
Maximum altitude 17:04:33 31° 151° (SSE) 3,155 10.6 -7.6°
Drops below altitude 10° 17:13:28 10° 95° (E) 3,916 10.6 -8.9°
Enters shadow 17:14:38 - 91° (E) 4,163 10.7 -9.1°
Sets 17:16:40 0° 85° (E) 4,640 - -9.4°
